Chicago, IL

8:21 AM CDT on August 22, 2017 (GMT -0500)
Chicago-O'Hare International

Weather History for KORD - October, 2012

Change the Weather History Date:

Sunday, October 14, 2012

  Actual Average Record
Temperature  
Mean Temperature 60 °F 53 °F  
Max Temperature 71 °F 63 °F 89 °F (1975)
Min Temperature 48 °F 43 °F 27 °F (1872)
Degree Days  
Heating Degree Days 5 12  
Month to date heating degree days 182 142  
Since 1 July heating degree days 289 260  
Cooling Degree Days 0 0  
Month to date cooling degree days 0 10  
Year to date cooling degree days 1321 842  
Growing Degree Days 10 (Base 50)    
Moisture  
Dew Point 58 °F    
Average Humidity 87    
Maximum Humidity 100    
Minimum Humidity 73    
Precipitation  
Precipitation 0.77 in 0.10 in 1.15 in (2003)
Month to date precipitation 1.55 1.40  
Year to date precipitation 22.15 29.74  
Snow  
Snow 0.00 in 0.00 in T in (1986)
Month to date snowfall 0.0 0.1  
Since 1 July snowfall 0.0 0.1  
Since 1 September snowfall 0.0 0.1  
Snow Depth 0.00 in    
Sea Level Pressure  
Sea Level Pressure 29.58 in    
Wind  
Wind Speed 16 mph (SW)    
Max Wind Speed 32 mph    
Max Gust Speed 45 mph    
Visibility 7 miles    
Events Rain , Thunderstorm    
T = Trace of Precipitation, MM = Missing Value Source: NWS Daily Summary

Daily Weather History Graph

Daily Weather History Graph

Search for Another Location

Airport or City:

Trip Planner

Search our weather history database for the weather conditions in past years. The results will help you decide how hot, cold, wet, or windy it might be!

Date:

Astronomy

Oct. 14, 2012 Rise Set
Actual Time 7:03 AM CDT 6:10 PM CDT
Civil Twilight 6:35 AM CDT 6:38 PM CDT
Nautical Twilight 6:02 AM CDT 7:11 PM CDT
Astronomical Twilight 5:30 AM CDT 7:43 PM CDT
Moon 6:01 AM CDT (10/14) 5:30 PM CDT (10/14)
Length of Visible Light 12h 03m
Length of Day
11h 07m
Waning Crescent, 1% of the Moon is Illuminated
Oct 14
Waning Crescent
Oct 15
New
Oct 21
First Quarter
Oct 29
Full
Nov 6
Last Quarter

Hourly Weather History & Observations

Time (CDT) Temp. Dew Point Humidity Pressure Visibility Wind Dir Wind Speed Gust Speed Precip Events Conditions
12:51 AM 66.0 °F 63.0 °F 90% 29.76 in 8.0 mi SSW 11.5 mph - N/A   Overcast
1:51 AM 66.0 °F 63.0 °F 90% 29.75 in 8.0 mi South 15.0 mph 19.6 mph N/A   Overcast
2:41 AM 64.4 °F 62.6 °F 94% 29.72 in 4.0 mi SSE 11.5 mph - 0.01 in Rain Light Rain
2:51 AM 64.9 °F 63.0 °F 93% 29.72 in 4.0 mi South 10.4 mph - 0.02 in Rain Light Rain
3:01 AM 64.4 °F 62.6 °F 94% 29.72 in 4.0 mi South 10.4 mph - 0.01 in Rain Light Rain
3:33 AM 64.4 °F 64.4 °F 100% 29.70 in 4.0 mi South 9.2 mph - 0.02 in Rain Rain
3:51 AM 64.9 °F 64.0 °F 97% 29.69 in 4.0 mi South 10.4 mph - 0.06 in Rain Light Rain
4:27 AM 64.4 °F 62.6 °F 94% 29.67 in 3.0 mi South 8.1 mph 18.4 mph 0.05 in Rain Heavy Rain
4:30 AM 64.4 °F 64.4 °F 100% 29.67 in 2.0 mi South 11.5 mph - 0.08 in Rain Heavy Rain
4:39 AM 64.4 °F 64.4 °F 100% 29.67 in 3.0 mi South 10.4 mph - 0.16 in Rain Rain
4:51 AM 64.9 °F 63.0 °F 93% 29.66 in 3.0 mi SSW 15.0 mph 19.6 mph 0.18 in Rain Light Rain
5:11 AM 64.4 °F 62.6 °F 94% 29.64 in 4.0 mi South 15.0 mph - 0.02 in Rain Rain
5:40 AM 64.4 °F 62.6 °F 94% 29.62 in 5.0 mi South 11.5 mph - 0.04 in Rain Light Rain
5:51 AM 64.4 °F 62.6 °F 94% 29.61 in 5.0 mi South 12.7 mph - N/A Rain Light Rain
6:23 AM 64.4 °F 62.6 °F 94% 29.58 in 5.0 mi South 12.7 mph - 0.02 in Rain Light Rain
6:37 AM 64.4 °F 62.6 °F 94% 29.58 in 4.0 mi SSE 11.5 mph - 0.02 in Rain Light Rain
6:51 AM 64.0 °F 63.0 °F 96% 29.56 in 3.0 mi South 11.5 mph - 0.03 in Rain Light Rain
7:03 AM 64.4 °F 62.6 °F 94% 29.56 in 2.5 mi South 13.8 mph - 0.01 in Rain Light Rain
7:20 AM 64.4 °F 62.6 °F 94% 29.56 in 9.0 mi SSW 20.7 mph 31.1 mph 0.02 in Rain Light Rain
7:43 AM 64.4 °F 62.6 °F 94% 29.55 in 10.0 mi SW 18.4 mph 25.3 mph 0.02 in   Overcast
7:51 AM 64.9 °F 62.1 °F 90% 29.55 in 10.0 mi SW 16.1 mph 25.3 mph 0.02 in   Overcast
8:38 AM 64.4 °F 62.6 °F 94% 29.58 in 10.0 mi SW 12.7 mph 21.9 mph N/A   Overcast
8:51 AM 64.9 °F 62.1 °F 90% 29.57 in 10.0 mi SW 17.3 mph 25.3 mph N/A   Overcast
9:29 AM 64.4 °F 60.8 °F 88% 29.57 in 10.0 mi SW 13.8 mph 26.5 mph N/A   Overcast
9:51 AM 64.9 °F 61.0 °F 87% 29.56 in 10.0 mi SW 19.6 mph 26.5 mph N/A   Overcast
10:44 AM 66.2 °F 60.8 °F 83% 29.55 in 10.0 mi SSW 19.6 mph 26.5 mph N/A   Overcast
10:51 AM 66.0 °F 61.0 °F 84% 29.54 in 10.0 mi SSW 19.6 mph 28.8 mph N/A   Overcast
11:00 AM 66.2 °F 60.8 °F 83% 29.54 in 10.0 mi SSW 20.7 mph 28.8 mph N/A   Overcast
11:34 AM 64.4 °F 60.8 °F 88% 29.52 in 2.0 mi SSW 17.3 mph 29.9 mph 0.03 in Rain Light Rain
11:51 AM 64.9 °F 62.1 °F 90% 29.50 in 5.0 mi SSW 23.0 mph 41.4 mph 0.06 in Rain Rain
12:31 PM 66.2 °F 62.6 °F 88% 29.50 in 10.0 mi SSW 24.2 mph 32.2 mph 0.00 in   Overcast
12:51 PM 66.0 °F 61.0 °F 84% 29.48 in 10.0 mi SSW 25.3 mph 35.7 mph 0.00 in   Overcast
1:04 PM 68.0 °F 60.8 °F 78% 29.48 in 10.0 mi SSW 17.3 mph 29.9 mph N/A   Overcast
1:25 PM 69.8 °F 60.8 °F 73% 29.45 in 10.0 mi SSW 19.6 mph 25.3 mph N/A   Mostly Cloudy
1:51 PM 70.0 °F 61.0 °F 73% 29.43 in 10.0 mi SW 18.4 mph 25.3 mph N/A   Mostly Cloudy
2:29 PM 68.0 °F 60.8 °F 78% 29.44 in 6.0 mi SSW 25.3 mph 35.7 mph 0.00 in Rain , Thunderstorm Light Thunderstorms and Rain
2:33 PM 64.4 °F 60.8 °F 88% 29.44 in 2.0 mi WSW 25.3 mph 44.9 mph 0.02 in Rain , Thunderstorm Light Thunderstorms and Rain
2:40 PM 62.6 °F 57.2 °F 82% 29.46 in 3.0 mi WSW 28.8 mph 42.6 mph 0.12 in Rain , Thunderstorm Thunderstorms and Rain
2:51 PM 59.0 °F 55.9 °F 90% 29.46 in 5.0 mi West 15.0 mph 33.4 mph 0.18 in Rain , Thunderstorm Thunderstorms and Rain
3:13 PM 59.0 °F 55.4 °F 88% 29.44 in 7.0 mi West 8.1 mph - 0.04 in Rain Light Rain
3:51 PM 59.0 °F 55.9 °F 90% 29.42 in 5.0 mi SSW 4.6 mph - 0.11 in Rain Rain
4:37 PM 60.8 °F 57.2 °F 88% 29.42 in 7.0 mi SSW 18.4 mph 23.0 mph 0.05 in Rain Light Rain
4:51 PM 60.1 °F 57.0 °F 90% 29.42 in 8.0 mi WSW 12.7 mph 26.5 mph 0.06 in Rain Light Rain
5:25 PM 57.2 °F 55.4 °F 94% 29.43 in 7.0 mi WSW 11.5 mph - 0.00 in Rain Light Rain
5:37 PM 53.6 °F 51.8 °F 94% 29.46 in 5.0 mi NW 29.9 mph 41.4 mph 0.00 in Rain Light Rain
5:56 PM 51.8 °F 48.2 °F 88% 29.50 in 6.0 mi NW 26.5 mph 35.7 mph 0.01 in Rain Light Rain
5:58 PM 52.0 °F 48.9 °F 89% 29.51 in 8.0 mi NW 24.2 mph 35.7 mph 0.01 in   Overcast
6:51 PM 50.0 °F 48.0 °F 93% 29.60 in 7.0 mi WNW 20.7 mph 28.8 mph 0.00 in Rain Light Rain
7:51 PM 51.1 °F 46.9 °F 86% 29.65 in 10.0 mi WNW 21.9 mph 29.9 mph 0.00 in   Overcast
8:44 PM 50.0 °F 44.6 °F 82% 29.70 in 10.0 mi WNW 17.3 mph 26.5 mph N/A   Overcast
8:51 PM 50.0 °F 45.0 °F 83% 29.71 in 10.0 mi WNW 15.0 mph 23.0 mph N/A   Overcast
9:51 PM 50.0 °F 45.0 °F 83% 29.73 in 10.0 mi NW 12.7 mph 20.7 mph N/A   Overcast
10:51 PM 48.0 °F 45.0 °F 89% 29.75 in 10.0 mi WNW 13.8 mph 23.0 mph N/A   Overcast
11:45 PM 48.2 °F 44.6 °F 87% 29.77 in 10.0 mi WNW 11.5 mph - N/A   Overcast
11:51 PM 48.0 °F 45.0 °F 89% 29.77 in 10.0 mi WNW 10.4 mph - N/A   Overcast